| time (UTC) | temp F | wind direction | speed MPH | gust MPH | rain 1hr in | rain 24hr in | rain mn in | humidity % | barometer mb |
| 20260906170037 | 73 | 58 | 0.0 | 2.0 | 0.00 | 0.00 | 0.00 | 44 | 1023.7 |
| 20260906164537 | 74 | 63 | 0.0 | 1.0 | 0.00 | 0.00 | 0.00 | 43 | 1023.6 |
| 20260906163036 | 75 | 77 | 0.0 | 2.0 | 0.00 | 0.00 | 0.00 | 40 | 1023.5 |
| 20260906161635 | 76 | 70 | 1.0 | 4.0 | 0.00 | 0.00 | 0.00 | 40 | 1023.4 |
| 20260906160037 | 77 | 112 | 0.0 | 3.0 | 0.00 | 0.00 | 0.00 | 38 | 1023.4 |
| 20260906154535 | 77 | 67 | 0.0 | 2.0 | 0.00 | 0.00 | 0.00 | 40 | 1023.5 |
| 20260906153044 | 77 | 89 | 0.0 | 2.0 | 0.00 | 0.00 | 0.00 | 40 | 1023.4 |
| 20260906151548 | 77 | 67 | 0.0 | 2.0 | 0.00 | 0.00 | 0.00 | 40 | 1023.5 |
| 20260906150035 | 76 | 65 | 0.0 | 2.0 | 0.00 | 0.00 | 0.00 | 38 | 1023.7 |
| 20260906144532 | 77 | 71 | 0.0 | 3.0 | 0.00 | 0.00 | 0.00 | 41 | 1023.9 |
| 20260906143037 | 77 | 74 | 0.0 | 3.0 | 0.00 | 0.00 | 0.00 | 41 | 1024.0 |
| 20260906141526 | 78 | 120 | 0.0 | 2.0 | 0.00 | 0.00 | 0.00 | 38 | 1024.1 |
| 20260906140031 | 78 | 66 | 0.0 | 3.0 | 0.00 | 0.00 | 0.00 | 40 | 1024.3 |
| 20260906134524 | 79 | 67 | 0.0 | 2.0 | 0.00 | 0.00 | 0.00 | 37 | 1024.4 |
| 20260906133026 | 78 | 67 | 0.0 | 2.0 | 0.00 | 0.00 | 0.00 | 39 | 1024.6 |
| 20260906131524 | 78 | 60 | 0.0 | 3.0 | 0.00 | 0.00 | 0.00 | 41 | 1024.7 |
| 20260906130017 | 78 | 60 | 0.0 | 3.0 | 0.00 | 0.00 | 0.00 | 39 | 1025.0 |
| 20260906124514 | 77 | 55 | 0.0 | 3.0 | 0.00 | 0.00 | 0.00 | 42 | 1025.0 |
| 20260906123027 | 77 | 54 | 0.0 | 4.0 | 0.00 | 0.00 | 0.00 | 42 | 1025.2 |
| 20260906121511 | 76 | 346 | 1.0 | 4.0 | 0.00 | 0.00 | 0.00 | 40 | 1025.3 |
| 20260906120008 | 76 | 342 | 0.0 | 1.0 | 0.00 | 0.00 | 0.00 | 44 | 1025.4 |
| 20260906114506 | 75 | 342 | 0.0 | 3.0 | 0.00 | 0.00 | 0.00 | 45 | 1025.6 |
| 20260906113004 | 74 | 29 | 0.0 | 5.0 | 0.00 | 0.00 | 0.00 | 46 | 1025.7 |
| 20260906111502 | 74 | 201 | 0.0 | 3.0 | 0.00 | 0.00 | 0.00 | 43 | 1025.8 |
| 20260906110000 | 74 | 78 | 0.0 | 2.0 | 0.00 | 0.00 | 0.00 | 47 | 1025.8 |
| 20260906103101 | 72 | 78 | 0.0 | 3.0 | 0.00 | 0.00 | 0.00 | 49 | 1026.2 |
| 20260906101647 | 72 | 80 | 0.0 | 3.0 | 0.00 | 0.00 | 0.00 | 53 | 1026.3 |
| 20260906100040 | 71 | 69 | 0.0 | 2.0 | 0.00 | 0.00 | 0.00 | 55 | 1026.7 |
| 20260906094538 | 70 | 69 | 0.0 | 2.0 | 0.00 | 0.00 | 0.00 | 58 | 1026.9 |
| 20260906093039 | 69 | 66 | 0.0 | 3.0 | 0.00 | 0.00 | 0.00 | 56 | 1026.8 |
| 20260906091533 | 68 | 69 | 0.0 | 4.0 | 0.00 | 0.00 | 0.00 | 58 | 1027.0 |
| 20260906090050 | 67 | 78 | 0.0 | 3.0 | 0.00 | 0.00 | 0.00 | 61 | 1027.1 |
| 20260906084528 | 66 | 77 | 0.0 | 3.0 | 0.00 | 0.00 | 0.00 | 63 | 1027.0 |
| 20260906083032 | 66 | 58 | 0.0 | 3.0 | 0.00 | 0.00 | 0.00 | 63 | 1027.0 |
| 20260906081523 | 65 | 59 | 0.0 | 3.0 | 0.00 | 0.00 | 0.00 | 65 | 1027.2 |
| 20260906080020 | 64 | 47 | 0.0 | 4.0 | 0.00 | 0.00 | 0.00 | 68 | 1027.3 |
| 20260906074517 | 62 | 279 | 0.0 | 2.0 | 0.00 | 0.00 | 0.00 | 70 | 1027.4 |
| 20260906073013 | 61 | 279 | 0.0 | 1.0 | 0.00 | 0.00 | 0.00 | 73 | 1027.4 |
| 20260906071509 | 58 | 279 | 0.0 | 0.0 | 0.00 | 0.00 | 0.00 | 77 | 1027.5 |
| 20260906070005 | 57 | 279 | 0.0 | 2.0 | 0.00 | 0.00 | 0.00 | 79 | 1027.4 |
| 20260906064502 | 56 | 279 | 0.0 | 1.0 | 0.00 | 0.00 | 0.00 | 81 | 1027.5 |
| 20260906063101 | 55 | 279 | 0.0 | 1.0 | 0.00 | 0.00 | 0.00 | 83 | 1027.5 |
| 20260906061604 | 53 | 279 | 0.0 | 1.0 | 0.00 | 0.00 | 0.00 | 85 | 1027.5 |
| 20260906060059 | 52 | 279 | 0.0 | 1.0 | 0.00 | 0.00 | 0.00 | 87 | 1027.6 |
| 20260906054557 | 50 | 279 | 0.0 | 0.0 | 0.00 | 0.00 | 0.00 | 89 | 1027.3 |
| 20260906053057 | 49 | 279 | 0.0 | 0.0 | 0.00 | 0.00 | 0.00 | 90 | 1027.3 |
| 20260906051603 | 49 | 279 | 0.0 | 0.0 | 0.00 | 0.00 | 0.00 | 90 | 1027.1 |
| 20260906050106 | 49 | 279 | 0.0 | 0.0 | 0.00 | 0.00 | 0.00 | 90 | 1027.0 |
| 20260906044555 | 49 | 279 | 0.0 | 0.0 | 0.00 | 0.04 | 0.00 | 90 | 1027.0 |
| 20260906043059 | 49 | 279 | 0.0 | 0.0 | 0.00 | 0.04 | 0.00 | 89 | 1027.1 |
| 20260906041557 | 49 | 279 | 0.0 | 0.0 | 0.00 | 0.04 | 0.00 | 89 | 1027.0 |
| 20260906040051 | 49 | 279 | 0.0 | 0.0 | 0.00 | 0.04 | 0.00 | 89 | 1026.9 |
| 20260906034607 | 49 | 279 | 0.0 | 0.0 | 0.00 | 0.25 | 0.00 | 89 | 1027.0 |
| 20260906033047 | 50 | 279 | 0.0 | 0.0 | 0.00 | 0.25 | 0.00 | 88 | 1026.8 |
| 20260906031550 | 50 | 279 | 0.0 | 0.0 | 0.00 | 0.25 | 0.00 | 88 | 1026.9 |
| 20260906030044 | 50 | 279 | 0.0 | 0.0 | 0.00 | 0.25 | 0.00 | 88 | 1026.9 |
| 20260906024542 | 50 | 279 | 0.0 | 0.0 | 0.00 | 0.49 | 0.00 | 88 | 1026.7 |
| 20260906023041 | 51 | 279 | 0.0 | 0.0 | 0.00 | 0.49 | 0.00 | 88 | 1026.8 |
| 20260906021540 | 51 | 279 | 0.0 | 0.0 | 0.00 | 0.49 | 0.00 | 88 | 1026.7 |
| 20260906020040 | 51 | 279 | 0.0 | 0.0 | 0.00 | 0.49 | 0.00 | 88 | 1026.6 |
| 20260906014540 | 51 | 279 | 0.0 | 0.0 | 0.00 | 0.49 | 0.00 | 88 | 1026.6 |
| 20260906013056 | 51 | 279 | 0.0 | 0.0 | 0.00 | 0.49 | 0.00 | 88 | 1026.6 |
| 20260906011545 | 51 | 279 | 0.0 | 0.0 | 0.00 | 0.49 | 0.00 | 88 | 1026.5 |
| 20260906010035 | 52 | 279 | 0.0 | 0.0 | 0.00 | 0.49 | 0.00 | 87 | 1026.5 |
| 20260906004533 | 52 | 279 | 0.0 | 0.0 | 0.00 | 0.49 | 0.00 | 88 | 1026.4 |
| 20260906003036 | 52 | 279 | 0.0 | 0.0 | 0.00 | 0.49 | 0.00 | 87 | 1026.5 |
| 20260906001532 | 53 | 279 | 0.0 | 0.0 | 0.00 | 0.49 | 0.00 | 87 | 1026.6 |
| 20260906000030 | 53 | 279 | 0.0 | 0.0 | 0.00 | 0.49 | 0.00 | 87 | 1026.5 |
| 20260905234528 | 53 | 279 | 0.0 | 0.0 | 0.00 | 0.49 | 0.00 | 86 | 1026.4 |
| 20260905233028 | 53 | 279 | 0.0 | 0.0 | 0.00 | 0.49 | 0.00 | 86 | 1026.2 |
| 20260905231528 | 54 | 279 | 0.0 | 0.0 | 0.00 | 0.49 | 0.00 | 86 | 1026.0 |
| 20260905230024 | 54 | 279 | 0.0 | 0.0 | 0.00 | 0.49 | 0.00 | 85 | 1026.1 |
| 20260905224521 | 55 | 279 | 0.0 | 0.0 | 0.00 | 0.49 | 0.00 | 85 | 1025.9 |
| 20260905223019 | 55 | 279 | 0.0 | 0.0 | 0.00 | 0.49 | 0.00 | 84 | 1025.9 |
| 20260905221516 | 55 | 279 | 0.0 | 0.0 | 0.00 | 0.49 | 0.00 | 83 | 1025.7 |
| 20260905220014 | 55 | 279 | 0.0 | 1.0 | 0.00 | 0.49 | 0.00 | 82 | 1025.5 |
| 20260905214512 | 56 | 279 | 0.0 | 0.0 | 0.00 | 0.49 | 0.49 | 81 | 1025.3 |
| 20260905213008 | 57 | 279 | 0.0 | 0.0 | 0.00 | 0.49 | 0.49 | 81 | 1025.1 |
| 20260905211507 | 57 | 279 | 0.0 | 0.0 | 0.00 | 0.49 | 0.49 | 80 | 1024.9 |
| 20260905210005 | 58 | 279 | 0.0 | 0.0 | 0.00 | 0.49 | 0.49 | 78 | 1024.8 |
| 20260905204503 | 58 | 279 | 0.0 | 0.0 | 0.00 | 0.49 | 0.49 | 77 | 1024.7 |
| 20260905203003 | 59 | 279 | 0.0 | 0.0 | 0.00 | 0.49 | 0.49 | 76 | 1024.6 |
| 20260905201502 | 60 | 279 | 0.0 | 0.0 | 0.00 | 0.49 | 0.49 | 75 | 1024.5 |
| 20260905200107 | 60 | 279 | 0.0 | 0.0 | 0.00 | 0.49 | 0.49 | 74 | 1024.3 |
| 20260905194558 | 61 | 279 | 0.0 | 0.0 | 0.00 | 0.49 | 0.49 | 71 | 1024.1 |
| 20260905193057 | 62 | 279 | 0.0 | 0.0 | 0.00 | 0.49 | 0.49 | 70 | 1024.2 |
| 20260905191556 | 62 | 279 | 0.0 | 0.0 | 0.00 | 0.49 | 0.49 | 68 | 1024.0 |
| 20260905190055 | 64 | 279 | 0.0 | 0.0 | 0.00 | 0.49 | 0.49 | 65 | 1023.8 |
| 20260905184554 | 65 | 279 | 0.0 | 0.0 | 0.00 | 0.49 | 0.49 | 61 | 1023.7 |
| 20260905183051 | 67 | 279 | 0.0 | 0.0 | 0.00 | 0.49 | 0.49 | 58 | 1023.4 |
| 20260905181549 | 68 | 279 | 0.0 | 0.0 | 0.00 | 0.49 | 0.49 | 55 | 1023.3 |
| 20260905180048 | 70 | 279 | 0.0 | 0.0 | 0.00 | 0.49 | 0.49 | 52 | 1023.1 |
| 20260905174548 | 70 | 279 | 0.0 | 4.0 | 0.00 | 0.49 | 0.49 | 49 | 1022.9 |
| 20260905173044 | 71 | 279 | 0.0 | 2.0 | 0.00 | 0.49 | 0.49 | 49 | 1022.7 |
| 20260905171555 | 72 | 278 | 0.0 | 3.0 | 0.00 | 0.49 | 0.49 | 48 | 1022.5 |